Torna al catalogo

STARLINK-36979

AttivoComunicazioniVLEO
NORAD 67996·PAYLOAD·🇺🇸 United States

Lanciato Feb 27, 2026 da Vandenberg Space Force Base

Loading…

Prossimi Passaggi (prossime 24 ore)

TLE

AggiornatoSource: CelesTrak SupGP

Epoca: Sep 14, 2026, 23:02 UTC

1 67996C 26039L   26257.96020833  .00046889  00000+0  16981-2 0  2578
2 67996  43.0041  59.9715 0001755 277.9325 330.0072 15.27558483    14

Traccia STARLINK-36979 in tempo reale con AllMySat

Download on the App Store